• In Deutschland
  • Länderverzeichnis
  • Für 7 Tage
  • Wassertemperatur
  • Satellitenkarten
  • Wetterkarte
  • Widgets
  • user-avatar
    Anmelden

    Stündliche Wetter Buenos Aires

    Heute, 17 August, Donnerstag

    Zeit Temperatur Niederschläge Wind Luftdruck Luftfeuchtigkeit
    00:00 +10°C° 0 mm 3 m/S 764 mmHg 61%
    01:00 +10°C° 0 mm 3 m/S 763 mmHg 63%
    02:00 +10°C° 0 mm 4 m/S 763 mmHg 64%
    03:00 +8°C° 0 mm 4 m/S 763 mmHg 65%
    04:00 +8°C° 0 mm 4 m/S 763 mmHg 66%
    05:00 +8°C° 0 mm 4 m/S 762 mmHg 67%
    06:00 +9°C° 0 mm 5 m/S 762 mmHg 66%
    07:00 +9°C° 0 mm 5 m/S 762 mmHg 65%
    08:00 +10°C° 0 mm 5 m/S 762 mmHg 64%
    09:00 +12°C° 0 mm 5 m/S 762 mmHg 60%
    10:00 +14°C° 0 mm 5 m/S 762 mmHg 56%
    11:00 +16°C° 0 mm 5 m/S 762 mmHg 52%
    12:00 +17°C° 0 mm 5 m/S 761 mmHg 52%
    13:00 +19°C° 0 mm 5 m/S 761 mmHg 52%
    14:00 +20°C° 0 mm 5 m/S 760 mmHg 52%
    15:00 +20°C° 0 mm 4 m/S 760 mmHg 57%
    16:00 +19°C° 0 mm 3 m/S 760 mmHg 61%
    17:00 +18°C° 0 mm 3 m/S 760 mmHg 66%
    18:00 +17°C° 0 mm 3 m/S 760 mmHg 70%
    19:00 +17°C° 0 mm 3 m/S 760 mmHg 74%
    20:00 +16°C° 0 mm 3 m/S 760 mmHg 78%
    21:00 +14°C° 0 mm 3 m/S 760 mmHg 79%
    22:00 +14°C° 0 mm 3 m/S 760 mmHg 81%
    23:00 +14°C° 0 mm 3 m/S 760 mmHg 82%

    Morgen, 18 August, Freitag

    Zeit Temperatur Niederschläge Wind Luftdruck Luftfeuchtigkeit
    00:00 +13°C° 0 mm 3 m/S 760 mmHg 84%
    01:00 +13°C° 0 mm 3 m/S 760 mmHg 85%
    02:00 +13°C° 0 mm 3 m/S 760 mmHg 86%
    03:00 +13°C° 0 mm 3 m/S 759 mmHg 86%
    04:00 +13°C° 0 mm 4 m/S 759 mmHg 87%
    05:00 +13°C° 0 mm 4 m/S 758 mmHg 87%
    06:00 +13°C° 0 mm 4 m/S 758 mmHg 84%
    07:00 +14°C° 0 mm 5 m/S 758 mmHg 81%
    08:00 +14°C° 0 mm 5 m/S 758 mmHg 77%
    09:00 +16°C° 0 mm 5 m/S 758 mmHg 70%
    10:00 +19°C° 0 mm 5 m/S 758 mmHg 63%
    11:00 +20°C° 0 mm 5 m/S 757 mmHg 57%
    12:00 +21°C° 0 mm 5 m/S 756 mmHg 54%
    13:00 +22°C° 0 mm 5 m/S 755 mmHg 51%
    14:00 +23°C° 0 mm 5 m/S 754 mmHg 48%
    15:00 +22°C° 0 mm 5 m/S 754 mmHg 53%
    16:00 +21°C° 0 mm 5 m/S 754 mmHg 57%
    17:00 +20°C° 0 mm 4 m/S 753 mmHg 61%
    18:00 +19°C° 0 mm 4 m/S 754 mmHg 66%
    19:00 +18°C° 0 mm 4 m/S 754 mmHg 70%
    20:00 +17°C° 0 mm 3 m/S 755 mmHg 75%
    21:00 +17°C° 0 mm 3 m/S 755 mmHg 77%
    22:00 +16°C° 0 mm 3 m/S 755 mmHg 79%
    23:00 +16°C° 0 mm 2 m/S 755 mmHg 81%

    übermorgen, 19 August, Samstag

    Zeit Temperatur Niederschläge Wind Luftdruck Luftfeuchtigkeit
    00:00 +16°C° 0,1 mm 2 m/S 755 mmHg 82%
    01:00 +16°C° 0,1 mm 2 m/S 755 mmHg 83%
    02:00 +16°C° 0,1 mm 2 m/S 755 mmHg 84%
    03:00 +16°C° 0,3 mm 2 m/S 755 mmHg 84%
    04:00 +16°C° 0,3 mm 3 m/S 755 mmHg 85%
    05:00 +14°C° 0,3 mm 3 m/S 755 mmHg 86%
    06:00 +14°C° 3,9 mm 4 m/S 756 mmHg 83%
    07:00 +13°C° 3,9 mm 4 m/S 757 mmHg 80%
    08:00 +12°C° 3,9 mm 5 m/S 758 mmHg 77%
    09:00 +12°C° 0,3 mm 4 m/S 758 mmHg 76%
    10:00 +12°C° 0,3 mm 4 m/S 759 mmHg 75%
    11:00 +13°C° 0,3 mm 3 m/S 759 mmHg 73%
    12:00 +13°C° 0 mm 4 m/S 759 mmHg 69%
    13:00 +14°C° 0 mm 4 m/S 759 mmHg 64%
    14:00 +14°C° 0 mm 5 m/S 759 mmHg 59%
    15:00 +14°C° 0 mm 5 m/S 759 mmHg 59%
    16:00 +13°C° 0 mm 5 m/S 760 mmHg 58%
    17:00 +13°C° 0 mm 5 m/S 760 mmHg 57%
    18:00 +12°C° 0 mm 5 m/S 761 mmHg 57%
    19:00 +12°C° 0 mm 5 m/S 762 mmHg 57%
    20:00 +10°C° 0 mm 5 m/S 763 mmHg 57%
    21:00 +10°C° 0 mm 5 m/S 763 mmHg 56%
    22:00 +10°C° 0 mm 5 m/S 764 mmHg 55%
    23:00 +9°C° 0 mm 5 m/S 764 mmHg 54%

    20 August, Sonntag

    Zeit Temperatur Niederschläge Wind Luftdruck Luftfeuchtigkeit
    00:00 +9°C° 0 mm 5 m/S 765 mmHg 54%
    01:00 +8°C° 0 mm 5 m/S 765 mmHg 54%
    02:00 +8°C° 0 mm 5 m/S 765 mmHg 54%
    03:00 +7°C° 0 mm 5 m/S 766 mmHg 53%
    04:00 +7°C° 0 mm 5 m/S 766 mmHg 53%
    05:00 +6°C° 0 mm 5 m/S 767 mmHg 53%
    06:00 +7°C° 0 mm 4 m/S 768 mmHg 53%
    07:00 +7°C° 0 mm 4 m/S 769 mmHg 53%
    08:00 +7°C° 0 mm 4 m/S 770 mmHg 53%
    09:00 +10°C° 0 mm 4 m/S 770 mmHg 48%
    10:00 +11°C° 0 mm 4 m/S 770 mmHg 43%
    11:00 +13°C° 0 mm 4 m/S 770 mmHg 38%
    12:00 +13°C° 0 mm 4 m/S 770 mmHg 38%
    13:00 +13°C° 0 mm 4 m/S 770 mmHg 38%
    14:00 +14°C° 0 mm 3 m/S 770 mmHg 38%
    15:00 +13°C° 0 mm 3 m/S 770 mmHg 41%
    16:00 +13°C° 0 mm 2 m/S 770 mmHg 45%
    17:00 +12°C° 0 mm 2 m/S 770 mmHg 48%
    18:00 +12°C° 0 mm 1 m/S 770 mmHg 49%
    19:00 +11°C° 0 mm 1 m/S 770 mmHg 50%
    20:00 +9°C° 0 mm 0 m/S 771 mmHg 51%
    21:00 +10°C° 0 mm 1 m/S 771 mmHg 52%
    22:00 +9°C° 0 mm 1 m/S 771 mmHg 52%
    23:00 +9°C° 0 mm 1 m/S 771 mmHg 53%

    21 August, Montag

    Zeit Temperatur Niederschläge Wind Luftdruck Luftfeuchtigkeit
    00:00 +8°C° 0 mm 2 m/S 771 mmHg 54%
    01:00 +8°C° 0 mm 3 m/S 770 mmHg 56%
    02:00 +8°C° 0 mm 3 m/S 770 mmHg 57%
    03:00 +7°C° 0 mm 4 m/S 770 mmHg 60%
    04:00 +7°C° 0 mm 4 m/S 770 mmHg 62%
    05:00 +6°C° 0 mm 4 m/S 770 mmHg 65%
    06:00 +7°C° 0 mm 5 m/S 771 mmHg 65%
    07:00 +8°C° 0 mm 5 m/S 771 mmHg 65%
    08:00 +8°C° 0 mm 5 m/S 771 mmHg 64%
    09:00 +10°C° 0 mm 6 m/S 771 mmHg 60%
    10:00 +11°C° 0 mm 6 m/S 771 mmHg 56%
    11:00 +13°C° 0 mm 6 m/S 771 mmHg 52%
    12:00 +14°C° 0 mm 6 m/S 770 mmHg 51%
    13:00 +15°C° 0 mm 6 m/S 769 mmHg 50%
    14:00 +16°C° 0 mm 6 m/S 769 mmHg 50%
    15:00 +15°C° 0 mm 5 m/S 768 mmHg 53%
    16:00 +14°C° 0 mm 5 m/S 768 mmHg 57%
    17:00 +13°C° 0 mm 5 m/S 768 mmHg 61%
    18:00 +13°C° 0 mm 5 m/S 768 mmHg 63%
    19:00 +12°C° 0 mm 5 m/S 768 mmHg 64%
    20:00 +11°C° 0 mm 6 m/S 767 mmHg 66%
    21:00 +10°C° 0 mm 6 m/S 767 mmHg 66%
    22:00 +10°C° 0 mm 6 m/S 767 mmHg 66%
    23:00 +10°C° 0 mm 7 m/S 767 mmHg 66%

    22 August, Dienstag

    Zeit Temperatur Niederschläge Wind Luftdruck Luftfeuchtigkeit
    00:00 +10°C° 0 mm 7 m/S 767 mmHg 66%
    01:00 +10°C° 0 mm 7 m/S 766 mmHg 67%
    02:00 +10°C° 0 mm 7 m/S 766 mmHg 68%
    03:00 +10°C° 0 mm 7 m/S 765 mmHg 69%
    04:00 +10°C° 0 mm 7 m/S 765 mmHg 70%
    05:00 +9°C° 0 mm 7 m/S 764 mmHg 72%
    06:00 +10°C° 0 mm 7 m/S 764 mmHg 72%
    07:00 +10°C° 0 mm 7 m/S 764 mmHg 72%
    08:00 +10°C° 0 mm 7 m/S 764 mmHg 73%
    09:00 +12°C° 0 mm 7 m/S 763 mmHg 68%
    10:00 +14°C° 0 mm 7 m/S 763 mmHg 64%
    11:00 +16°C° 0 mm 7 m/S 763 mmHg 60%
    12:00 +17°C° 0 mm 7 m/S 761 mmHg 58%
    13:00 +17°C° 0 mm 7 m/S 760 mmHg 56%
    14:00 +18°C° 0 mm 7 m/S 759 mmHg 54%
    15:00 +19°C° 0 mm 6 m/S 759 mmHg 58%
    16:00 +17°C° 0 mm 6 m/S 759 mmHg 62%
    17:00 +17°C° 0 mm 5 m/S 758 mmHg 66%
    18:00 +16°C° 0 mm 5 m/S 758 mmHg 70%
    19:00 +16°C° 0 mm 6 m/S 758 mmHg 74%
    20:00 +16°C° 0 mm 6 m/S 758 mmHg 77%
    21:00 +16°C° 0 mm 6 m/S 758 mmHg 79%
    22:00 +16°C° 0 mm 7 m/S 758 mmHg 80%
    23:00 +16°C° 0 mm 7 m/S 757 mmHg 82%
    Mehr zeigen